Wetbulb
39.84 39.35 38.73 38.50 38.85 38.57 38.17 38.78 39.26 39.54 39.60 39.59 39.86 39.60 39.21 38.57 38.17 37.50 41.34 40.73 38.27 36.56 36.78 37.10 37.96 39.28 38.28 38.40 40.08 38.70 37.61 37.92 36.54 38.19 38.39 38.47 38.37 38.64 41.74 43.99 44.42 44.45 45.74
39.65 39.12 38.69 38.79 38.48 37.50 37.58 38.30 38.93 38.27 39.03 38.93 39.11 39.19 39.06 38.76 37.73 36.60 40.42 40.90 38.56 36.58 36.70 36.56 37.23 39.92 38.28 39.14 40.78 39.12 38.38 38.40 36.40 35.98 35.66 37.70 36.07 40.70 39.92 40.40 41.16 42.87 42.01
39.68 38.52 38.27 37.98 37.61 37.22 37.41 38.11 38.52 37.86 37.54 37.77 38.67 37.81 38.30 38.29 37.80 37.46 40.61 41.92 42.13 38.72 37.35 36.62 36.81 36.74 35.90 39.04 39.68 38.44 38.25 39.01 37.67 38.12 37.52 39.25 40.01 39.41 38.11 38.12 37.60 39.11 41.73
39.28 37.95 37.37 37.39 37.82 37.85 38.08 37.89 37.89 37.75 36.74 36.77 37.35 37.46 38.10 38.11 38.88 39.14 39.55 39.19 40.97 39.00 38.64 38.38 37.26 36.96 35.82 40.02 39.52 38.68 37.72 37.30 37.70 35.27 34.45 36.07 36.68 36.13 35.09 34.37 34.36 35.87 36.31
38.82 37.66 37.42 38.21 38.73 38.53 38.04 37.85 37.74 37.21 36.82 36.90 36.69 36.52 36.84 37.68 39.43 37.60 38.57 38.51 38.16 37.99 37.97 37.59 37.57 40.15 42.94 43.39 40.95 39.02 37.85 36.88 35.59 34.24 34.61 34.53 34.34 34.42 32.50 34.02 31.62 32.01 33.39
38.27 37.67 38.46 38.66 38.62 38.08 37.86 37.63 36.68 36.20 35.80 35.93 35.37 35.68 35.51 38.89 42.16 42.97 41.20 38.26 39.12 38.53 35.88 35.44 36.53 39.98 40.48 43.37 44.11 43.76 41.37 37.77 35.90 34.84 34.90 34.22 34.12 33.07 33.88 33.69 32.56 30.95 27.84
38.48 38.25 38.54 38.58 38.18 38.04 38.46 37.83 35.75 34.59 34.69 34.33 34.70 35.48 35.41 36.08 42.64 43.27 43.42 39.27 39.49 39.05 35.35 34.40 35.83 38.56 39.62 39.93 42.33 42.10 40.42 41.66 41.07 36.26 33.16 33.33 33.13 33.78 34.61 32.31 32.20 31.64 31.79
38.36 38.39 38.43 38.19 37.79 37.96 37.55 36.68 34.84 34.33 33.84 34.15 35.02 35.81 35.51 37.44 42.82 43.10 43.25 38.50 38.10 37.63 35.89 34.49 34.01 34.78 37.09 40.03 38.24 36.63 37.32 36.68 38.58 37.20 34.67 35.48 35.38 33.67 36.55 35.60 33.61 32.48 33.49
38.25 38.38 38.49 38.25 37.53 37.76 36.69 36.12 35.44 34.30 34.14 34.58 35.99 35.51 34.92 35.16 42.16 42.51 41.18 37.64 38.30 36.68 37.01 35.29 35.20 35.15 40.60 41.86 35.95 34.91 34.75 34.67 40.21 40.05 40.21 39.93 39.77 39.29 38.00 36.20 33.59 32.52 30.88
38.63 39.09 39.08 38.73 37.76 37.31 37.31 36.91 36.81 35.86 36.03 36.81 36.38 35.72 38.72 35.44 41.21 42.43 41.03 38.08 36.72 36.12 35.80 35.83 39.48 37.56 40.69 40.63 34.36 32.80 30.50 31.94 33.35 33.56 34.69 35.58 37.46 36.98 38.26 34.65 34.87 31.64 31.06
39.17 39.37 39.26 38.64 37.78 37.47 37.33 37.69 36.95 36.26 36.33 35.10 35.76 35.74 36.02 37.02 36.57 42.42 42.50 38.00 37.51 36.50 35.36 34.39 34.73 39.61 39.88 39.71 38.84 33.15 32.40 34.89 34.65 32.57 32.28 30.32 32.50 33.08 35.20 35.55 35.35 33.79 31.50
38.91 39.40 38.97 38.22 39.09 39.20 36.82 37.26 37.12 36.12 34.84 34.18 34.46 34.99 36.61 36.87 42.16 42.29 42.66 42.29 41.95 36.59 34.68 34.41 34.16 38.91 39.21 39.14 36.47 38.22 38.52 37.42 31.93 31.31 31.16 29.01 28.26 28.33 30.09 32.22 35.77 36.11 35.77
37.73 37.30 37.43 38.58 38.44 37.88 36.36 36.21 36.23 36.50 35.50 35.06 35.11 34.19 34.76 37.13 37.00 43.18 43.23 42.90 43.07 38.65 36.28 37.56 39.31 38.90 38.71 36.58 37.83 38.16 37.24 30.80 29.68 29.12 28.68 29.27 30.12 31.18 31.91 32.91 33.70 33.78 34.13
37.21 36.37 36.80 36.86 37.02 36.94 38.22 37.88 36.41 36.22 35.82 36.30 35.70 34.46 34.45 35.71 36.55 36.55 37.57 37.00 39.97 37.40 37.78 35.17 37.74 38.30 39.19 37.40 35.11 33.68 32.07 30.50 28.90 27.97 28.18 29.74 31.27 31.51 30.68 31.16 30.12 30.67 30.08
37.14 36.75 36.60 37.20 38.25 36.47 37.20 36.92 37.21 37.05 37.94 36.28 36.06 35.74 34.35 34.71 36.88 39.09 38.54 37.10 35.46 36.69 36.13 33.36 31.18 30.98 30.58 30.49 31.06 31.63 30.76 30.20 28.62 28.41 27.83 28.41 30.01 30.57 30.59 30.87 31.14 29.87 27.81
37.15 36.44 36.60 36.38 35.84 36.44 36.06 36.36 43.50 42.64 43.31 41.95 41.26 39.05 38.19 40.89 42.13 40.34 39.88 39.07 38.30 37.87 32.27 29.58 28.71 28.95 28.68 28.81 28.63 29.04 30.51 31.86 29.16 29.23 28.30 28.13 28.19 28.98 29.85 30.82 30.52 27.87 27.08
37.26 36.92 36.63 37.91 36.16 34.95 35.71 35.24 34.67 39.52 43.63 42.85 42.14 41.85 41.56 40.71 40.14 39.18 38.29 37.66 37.44 35.89 29.69 28.41 28.40 28.63 28.85 29.26 28.77 28.68 28.74 30.34 30.87 29.27 28.33 27.93 29.01 29.73 29.57 29.16 29.72 29.28 28.59
37.41 41.02 35.85 35.93 34.79 34.88 35.40 35.39 35.51 35.49 35.11 34.71 40.11 39.90 40.61 39.90 39.47 38.26 37.14 35.82 31.30 32.83 29.47 28.55 28.33 28.77 28.96 28.82 29.19 29.33 29.78 30.68 30.23 30.05 28.81 28.60 28.11 28.64 28.55 27.99 27.96 27.52 27.73
37.62 37.39 36.70 35.63 35.17 35.91 35.42 35.16 35.22 35.09 34.48 34.29 34.44 38.17 38.05 39.56 38.71 37.93 36.80 30.73 29.13 28.69 29.04 28.73 29.00 29.01 28.97 29.27 30.11 30.83 30.62 30.42 30.62 29.29 28.96 28.69 28.47 27.78 27.33 27.43 27.28 32.10 31.12
37.67 40.03 38.65 36.12 36.03 35.67 35.19 34.57 33.90 33.61 33.48 33.53 33.38 33.35 34.39 35.51 32.64 32.23 32.44 31.28 29.04 28.42 28.39 28.51 28.52 28.84 29.07 29.44 29.66 30.27 29.96 29.92 29.44 29.40 29.27 29.36 29.26 28.33 27.38 27.00 26.95 26.38 26.16
37.57 37.81 39.95 36.17 35.42 35.37 34.95 34.24 33.88 33.01 32.68 32.78 32.80 35.04 37.22 32.96 32.10 31.30 30.52 29.22 28.49 28.06 28.01 28.29 28.50 28.66 29.45 29.52 29.37 29.46 28.98 29.23 31.81 31.56 29.74 29.54 29.78 27.98 28.11 27.69 27.64 27.37 26.70
37.45 37.08 37.70 36.19 36.14 35.68 34.90 34.98 34.15 33.74 33.14 32.50 31.95 34.94 38.27 31.32 31.13 30.18 29.30 29.05 28.94 29.99 30.71 30.85 30.06 31.72 29.89 29.51 30.66 29.88 30.58 30.29 31.02 31.51 30.93 29.66 29.79 28.70 27.73 27.44 27.61 26.74 26.73
37.37 36.96 36.40 35.93 36.27 37.39 36.15 34.75 34.28 34.04 32.95 32.34 31.88 32.30 31.44 30.33 30.37 29.67 29.64 29.32 29.18 30.86 31.23 31.00 31.08 31.40 32.51 32.63 32.93 32.26 31.15 31.04 32.10 32.87 32.52 30.26 28.69 27.72 27.63 26.99 27.04 26.58 26.83
37.40 36.67 35.70 35.37 35.39 35.07 34.61 34.38 34.29 34.86 32.94 32.40 32.36 31.54 30.27 30.23 30.02 30.17 29.91 29.83 29.59 30.83 31.08 31.04 31.11 31.05 31.00 31.37 31.79 32.39 32.59 33.69 33.72 33.25 32.97 29.33 28.39 27.95 27.12 26.78 26.79 27.32 26.77
37.26 36.53 35.75 35.23 35.00 35.06 34.84 34.40 33.86 33.30 33.35 32.95 32.37 31.61 30.57 30.58 30.27 30.74 30.83 29.68 29.29 30.46 30.64 30.65 30.90 30.76 30.66 30.90 31.31 31.82 33.08 33.20 33.03 33.75 31.38 29.44 28.09 27.93 27.35 26.86 27.14 27.02 26.69
36.94 36.66 35.97 35.64 35.26 35.36 34.91 34.44 33.97 33.72 32.79 32.56 32.08 30.94 30.70 30.63 30.66 30.65 30.55 29.58 29.13 30.10 30.39 30.52 30.62 30.71 30.81 30.98 31.65 32.72 32.53 32.94 33.18 34.26 32.24 29.28 28.04 27.58 27.49 27.22 27.22 26.46 26.09
MSLP
1023.45 1023.84 1024.20 1024.38 1024.51 1024.66 1024.73 1024.70 1024.47 1024.30 1024.29 1024.27 1024.14 1024.15 1024.12 1023.99 1023.53 1023.46 1023.27 1023.15 1022.82 1022.42 1022.03 1021.77 1021.53 1021.25 1021.10 1020.87 1020.46 1019.90 1019.59 1019.23 1018.77 1017.96 1017.21 1016.17 1015.77 1015.51 1014.86 1014.09 1013.61 1013.53 1013.24
1022.88 1023.25 1023.57 1023.74 1023.95 1024.12 1024.16 1024.01 1023.82 1023.98 1023.89 1023.81 1023.76 1023.87 1023.78 1023.63 1023.36 1023.17 1023.04 1022.86 1022.60 1022.05 1021.65 1021.55 1021.40 1021.23 1020.76 1020.61 1020.27 1019.79 1019.44 1018.98 1018.80 1018.32 1017.31 1016.92 1016.25 1015.81 1015.67 1015.37 1014.72 1014.15 1013.94
1022.46 1022.78 1023.09 1023.28 1023.44 1023.56 1023.58 1023.58 1023.51 1023.71 1023.71 1023.55 1023.45 1023.51 1023.44 1023.31 1023.09 1022.78 1022.79 1022.62 1022.29 1021.75 1021.38 1021.35 1021.14 1020.57 1020.66 1020.42 1020.01 1019.78 1019.43 1018.96 1018.66 1018.31 1017.86 1017.35 1016.87 1016.49 1016.07 1015.85 1015.73 1015.11 1014.26
1021.96 1022.34 1022.71 1022.85 1022.97 1023.07 1023.19 1023.31 1023.36 1023.36 1023.42 1023.35 1023.25 1023.22 1023.12 1023.00 1022.64 1022.50 1022.42 1022.43 1022.01 1021.46 1021.13 1020.96 1020.59 1020.55 1020.38 1020.04 1019.75 1019.63 1019.46 1019.18 1018.77 1018.46 1018.06 1017.76 1017.56 1017.14 1016.92 1016.71 1016.03 1015.71 1015.35
1021.33 1021.82 1022.04 1022.20 1022.48 1022.70 1022.93 1023.02 1023.07 1023.09 1023.11 1023.03 1022.95 1022.88 1022.79 1022.66 1022.23 1022.12 1022.15 1022.12 1021.77 1021.26 1020.92 1020.70 1020.65 1020.36 1019.90 1019.64 1019.40 1019.40 1019.31 1019.21 1019.05 1018.74 1018.40 1018.12 1017.91 1017.84 1017.92 1017.76 1017.40 1016.74 1016.16
1020.44 1020.97 1021.26 1021.59 1021.89 1022.20 1022.50 1022.61 1022.70 1022.78 1022.78 1022.65 1022.61 1022.54 1022.42 1022.16 1021.76 1021.56 1021.68 1021.80 1021.45 1021.04 1020.79 1020.64 1020.50 1020.19 1019.80 1019.60 1019.31 1019.14 1019.04 1019.01 1018.94 1018.81 1018.56 1018.46 1018.23 1018.34 1018.28 1018.01 1017.93 1017.75 1017.65
1019.74 1020.21 1020.54 1020.89 1021.26 1021.60 1021.92 1022.14 1022.29 1022.47 1022.42 1022.27 1022.25 1022.20 1022.03 1021.85 1021.50 1021.22 1021.24 1021.38 1021.09 1020.75 1020.53 1020.49 1020.39 1020.15 1019.80 1019.45 1019.19 1019.04 1019.00 1018.85 1018.69 1018.82 1018.92 1018.71 1018.56 1018.48 1018.26 1018.15 1018.02 1017.97 1017.77
1019.18 1019.54 1019.78 1020.18 1020.64 1020.97 1021.33 1021.60 1021.79 1021.93 1021.97 1021.87 1021.85 1021.79 1021.63 1021.44 1021.20 1021.09 1021.01 1021.06 1020.72 1020.33 1020.20 1020.18 1020.20 1020.09 1019.75 1019.22 1019.16 1019.10 1018.88 1018.75 1018.59 1018.73 1018.81 1018.63 1018.38 1018.38 1018.20 1018.05 1017.93 1017.78 1017.48
1018.55 1018.93 1019.19 1019.44 1020.03 1020.41 1020.83 1021.02 1021.13 1021.34 1021.45 1021.40 1021.38 1021.36 1021.26 1021.10 1020.96 1020.81 1020.65 1020.75 1020.56 1020.21 1019.95 1019.84 1019.89 1019.89 1019.68 1019.27 1019.26 1019.41 1019.05 1018.98 1018.54 1018.30 1018.15 1018.10 1017.91 1017.82 1017.79 1017.87 1017.88 1017.78 1017.51
1017.57 1018.03 1018.49 1018.85 1019.26 1019.76 1020.07 1020.38 1020.51 1020.70 1020.84 1020.88 1020.90 1020.80 1020.75 1020.61 1020.52 1020.42 1020.39 1020.45 1020.50 1020.21 1019.88 1019.62 1019.50 1019.57 1019.52 1019.34 1019.33 1019.40 1019.33 1019.25 1018.89 1018.60 1018.26 1018.21 1017.90 1017.99 1017.87 1018.05 1017.97 1017.98 1017.94
1016.84 1017.24 1017.71 1018.12 1018.59 1018.95 1019.38 1019.72 1020.02 1020.30 1020.42 1020.50 1020.42 1020.23 1020.14 1020.07 1019.96 1019.98 1020.06 1020.05 1020.13 1020.09 1019.86 1019.54 1019.29 1019.36 1019.32 1019.31 1019.20 1019.27 1019.08 1018.69 1018.52 1018.35 1018.10 1018.05 1018.08 1018.03 1017.79 1017.90 1017.97 1018.08 1018.11
1016.27 1016.72 1017.05 1017.48 1017.91 1018.36 1018.86 1019.26 1019.51 1019.82 1020.12 1020.13 1020.03 1019.81 1019.48 1019.36 1019.33 1019.41 1019.52 1019.52 1019.52 1019.63 1019.66 1019.41 1019.33 1019.28 1019.19 1019.15 1019.08 1018.97 1018.79 1018.54 1018.36 1018.28 1018.19 1018.10 1018.13 1017.83 1017.60 1017.68 1017.36 1017.61 1017.73
1015.86 1016.26 1016.79 1017.11 1017.48 1017.80 1018.37 1018.82 1019.17 1019.34 1019.49 1019.51 1019.49 1019.34 1019.17 1018.89 1018.86 1018.89 1018.88 1018.96 1018.99 1019.05 1019.21 1019.20 1019.25 1019.17 1019.06 1018.99 1018.93 1018.79 1018.71 1018.69 1018.69 1018.61 1018.51 1018.28 1017.91 1017.51 1017.15 1017.20 1017.21 1017.07 1017.01
1015.06 1015.64 1016.24 1016.80 1017.21 1017.43 1017.67 1018.00 1018.41 1018.64 1018.79 1018.85 1018.85 1018.85 1018.72 1018.72 1018.62 1018.64 1018.78 1018.91 1019.09 1019.12 1019.15 1019.13 1018.99 1018.79 1018.81 1018.81 1018.73 1018.66 1018.66 1018.62 1018.67 1018.72 1018.57 1018.23 1017.86 1017.60 1017.45 1017.23 1017.20 1017.01 1017.08
1014.45 1015.02 1015.56 1016.08 1016.52 1016.89 1017.07 1017.25 1017.52 1017.63 1017.83 1018.05 1018.15 1018.29 1018.38 1018.46 1018.53 1018.53 1018.61 1018.83 1019.01 1019.11 1019.07 1019.11 1018.99 1018.87 1018.86 1018.94 1018.97 1018.85 1018.75 1018.72 1018.89 1018.72 1018.62 1018.46 1018.19 1017.95 1017.75 1017.43 1017.29 1017.26 1017.37
1013.78 1014.27 1014.70 1015.16 1015.62 1016.05 1016.44 1016.75 1016.75 1016.93 1017.12 1017.32 1017.52 1017.79 1017.94 1018.08 1018.07 1018.21 1018.43 1018.65 1018.84 1019.02 1019.28 1019.28 1019.13 1019.04 1019.08 1019.13 1019.25 1019.21 1019.11 1019.03 1018.96 1018.88 1018.72 1018.60 1018.46 1018.23 1017.98 1017.70 1017.55 1017.64 1017.64
1012.79 1013.36 1013.86 1014.35 1014.84 1015.33 1015.80 1016.16 1016.53 1016.45 1016.58 1016.88 1017.12 1017.33 1017.50 1017.74 1018.00 1018.22 1018.35 1018.57 1018.55 1018.77 1019.15 1019.13 1019.07 1019.06 1019.08 1019.13 1019.24 1019.36 1019.40 1019.15 1018.96 1018.92 1018.87 1018.77 1018.59 1018.48 1018.25 1018.04 1017.86 1017.78 1017.66
1012.10 1012.52 1012.95 1013.37 1013.85 1014.46 1014.96 1015.41 1015.77 1016.15 1016.46 1016.68 1016.66 1016.82 1017.03 1017.31 1017.60 1018.03 1018.23 1018.38 1018.66 1018.57 1018.90 1019.08 1019.18 1019.11 1019.15 1019.21 1019.31 1019.36 1019.33 1019.16 1019.06 1019.00 1018.91 1018.79 1018.66 1018.54 1018.30 1018.15 1017.99 1017.88 1017.71
1011.38 1011.77 1012.10 1012.57 1013.02 1013.53 1014.15 1014.71 1015.12 1015.43 1015.71 1015.98 1016.37 1016.46 1016.72 1017.08 1017.39 1017.75 1018.01 1018.15 1018.27 1018.46 1018.71 1019.02 1019.06 1019.06 1019.08 1019.07 1019.14 1019.18 1019.19 1019.15 1018.99 1019.04 1018.99 1018.88 1018.70 1018.59 1018.41 1018.16 1017.96 1017.77 1017.56
1010.54 1011.01 1011.46 1011.90 1012.53 1013.02 1013.38 1013.92 1014.44 1014.81 1015.14 1015.42 1015.78 1016.08 1016.43 1016.92 1017.27 1017.52 1017.85 1017.89 1018.09 1018.37 1018.56 1018.85 1019.06 1019.07 1018.99 1019.00 1019.00 1018.97 1019.08 1019.09 1019.18 1019.21 1019.11 1018.89 1018.59 1018.36 1018.27 1018.07 1017.83 1017.71 1017.58
1009.66 1010.20 1010.68 1011.36 1011.80 1012.28 1012.72 1013.13 1013.63 1014.10 1014.50 1014.77 1014.93 1015.05 1015.48 1016.12 1016.61 1016.95 1017.39 1017.72 1018.01 1018.28 1018.52 1018.63 1018.82 1018.87 1018.78 1018.79 1018.91 1018.96 1019.05 1019.03 1019.00 1019.12 1019.10 1018.95 1018.64 1018.39 1018.00 1017.81 1017.69 1017.48 1017.37
1008.84 1009.33 1009.87 1010.43 1011.01 1011.57 1012.05 1012.49 1012.94 1013.34 1013.70 1014.10 1014.41 1014.59 1014.96 1015.65 1016.16 1016.57 1016.99 1017.50 1017.83 1018.06 1018.19 1018.39 1018.46 1018.47 1018.63 1018.63 1018.56 1018.64 1018.83 1019.03 1019.01 1018.96 1018.87 1018.74 1018.54 1018.21 1017.93 1017.74 1017.60 1017.43 1017.32
1007.79 1008.48 1009.00 1009.61 1010.15 1010.69 1011.32 1011.78 1012.13 1012.46 1012.90 1013.33 1013.87 1014.38 1014.80 1015.44 1015.85 1016.16 1016.54 1017.09 1017.54 1017.76 1017.95 1018.21 1018.25 1018.27 1018.38 1018.35 1018.30 1018.52 1018.73 1018.79 1018.79 1018.66 1018.50 1018.48 1018.36 1018.17 1017.93 1017.80 1017.59 1017.43 1017.35
1006.44 1007.27 1008.08 1008.66 1009.28 1009.86 1010.32 1010.84 1011.32 1011.67 1012.14 1012.66 1013.19 1013.84 1014.43 1015.04 1015.46 1015.78 1016.08 1016.53 1017.13 1017.39 1017.63 1017.90 1018.00 1018.08 1018.43 1018.66 1018.60 1018.50 1018.50 1018.47 1018.46 1018.42 1018.17 1018.23 1018.09 1017.89 1017.73 1017.60 1017.49 1017.33 1017.29
1005.62 1006.11 1006.93 1007.67 1008.27 1008.80 1009.44 1009.96 1010.52 1011.00 1011.41 1011.91 1012.49 1013.10 1013.75 1014.32 1014.89 1015.32 1015.74 1016.02 1016.58 1017.10 1017.35 1017.51 1017.78 1017.93 1018.12 1018.30 1018.37 1018.21 1018.14 1018.26 1018.13 1017.97 1017.95 1017.81 1017.75 1017.61 1017.53 1017.45 1017.28 1017.24 1017.16
1005.05 1005.29 1005.82 1006.66 1007.39 1007.96 1008.49 1009.01 1009.52 1010.13 1010.72 1011.22 1011.81 1012.46 1013.06 1013.69 1014.26 1014.71 1015.12 1015.64 1016.09 1016.72 1017.04 1017.24 1017.48 1017.69 1017.82 1017.96 1018.05 1018.04 1017.94 1017.92 1017.84 1017.65 1017.50 1017.54 1017.51 1017.39 1017.40 1017.50 1017.43 1017.33 1017.17
Wind_Speed
7 6 7 5 5 5 4 5 6 4 4 5 6 4 6 5 6 5 4 7 7 5 5 5 6 4 3 4 7 5 3 3 7 9 6 4 6 5 8 7 9 7 5
7 7 7 7 6 5 6 7 4 4 5 5 5 4 5 5 6 6 5 5 7 5 6 4 6 6 5 5 7 6 4 5 2 9 3 5 4 8 7 9 10 10 7
7 7 6 6 6 7 6 5 4 4 4 5 5 4 5 5 6 6 2 6 7 6 5 5 5 6 5 6 5 4 5 6 4 4 5 4 4 8 9 6 7 9 8
7 7 8 8 7 7 5 4 4 4 4 6 4 4 5 5 6 4 5 6 7 6 5 5 5 4 5 5 4 4 6 7 5 4 2 3 3 4 4 7 8 4 4
8 8 8 7 6 5 5 5 5 5 4 6 5 4 4 4 4 3 4 6 7 7 5 4 5 9 11 11 4 3 3 3 5 5 3 2 3 3 6 4 4 6 4
9 8 7 7 7 7 6 6 5 4 5 6 5 4 4 3 10 10 8 4 7 7 5 4 5 10 7 13 12 13 9 4 3 3 2 4 3 1 4 2 3 5 4
8 8 8 7 7 7 7 6 6 5 6 6 5 4 5 4 10 11 11 3 7 7 3 3 4 5 9 4 8 8 8 11 9 4 4 4 3 2 2 3 1 1 2
8 8 8 8 8 7 7 7 6 5 6 5 5 6 5 4 11 11 12 5 6 6 1 0 2 5 7 7 4 5 3 4 3 2 1 3 4 4 2 2 2 3 3
10 9 8 8 8 7 7 7 6 5 4 5 5 5 5 6 10 11 9 4 6 6 1 0 3 1 9 11 5 6 6 5 7 0 6 7 7 7 5 3 3 2 3
11 10 7 7 8 8 7 7 5 4 5 4 6 6 8 6 8 10 7 2 5 4 6 1 4 1 9 10 5 5 4 4 5 4 4 3 2 2 7 3 3 2 2
8 8 8 8 8 7 7 5 5 5 5 5 6 6 7 7 7 8 8 2 3 3 4 3 1 5 9 8 8 3 4 5 7 5 4 3 3 3 2 3 1 1 1
8 9 9 8 7 6 7 6 5 6 6 6 6 6 5 6 8 7 7 7 6 2 4 1 2 8 8 8 4 7 8 7 4 4 3 2 1 2 3 4 5 4 4
8 8 7 7 7 6 7 6 4 5 5 5 4 4 4 4 4 7 7 6 8 3 3 4 5 8 8 5 6 6 5 3 4 4 3 3 3 3 4 2 3 4 5
10 8 7 7 6 6 6 5 5 5 5 5 4 4 4 3 3 1 3 4 6 5 5 5 6 7 8 6 3 3 2 2 1 1 2 3 4 4 3 2 2 2 1
9 8 7 7 9 6 6 6 6 5 6 5 4 3 3 3 2 2 1 1 1 3 5 3 3 2 2 2 3 2 2 3 3 3 2 3 3 3 3 3 2 3 2
9 8 8 7 6 6 5 4 12 11 8 7 6 5 3 6 8 2 0 1 2 4 2 2 1 1 1 2 2 3 3 3 2 3 3 3 3 3 3 4 3 3 2
11 10 7 9 7 6 6 6 5 6 11 11 12 12 12 9 5 3 2 2 4 2 2 2 0 1 1 2 2 2 2 3 3 3 2 3 3 3 5 3 3 2 3
10 15 8 7 6 6 6 6 5 5 6 4 11 10 11 9 7 6 4 2 1 2 2 1 1 0 1 1 2 2 3 4 2 3 3 3 3 2 3 3 3 3 3
10 9 8 7 7 8 6 5 5 5 5 4 2 8 8 10 8 7 6 3 3 3 2 1 1 1 1 1 1 2 2 3 2 2 3 3 4 2 3 3 4 8 7
11 16 11 7 8 7 7 7 5 5 5 5 5 6 5 7 4 4 4 4 2 3 3 3 2 2 1 1 1 1 2 3 3 4 4 4 4 3 3 4 4 3 3
9 9 14 8 8 8 8 8 7 6 5 5 5 6 15 7 5 5 4 4 4 3 3 3 1 3 1 2 1 2 3 3 3 3 4 4 4 3 4 4 4 4 3
9 9 10 10 8 9 8 8 7 7 6 6 4 5 15 4 4 4 5 4 4 3 3 3 3 2 2 2 2 1 1 1 2 2 4 4 4 4 3 3 4 3 3
10 10 10 9 9 13 10 8 8 8 7 6 6 6 5 4 4 5 5 5 4 4 5 4 3 1 2 2 1 1 0 1 2 3 4 3 4 4 3 3 3 3 3
12 12 11 10 9 9 9 9 8 10 8 7 7 8 7 6 5 6 5 5 5 5 5 4 3 4 3 3 2 1 3 2 2 4 4 4 4 5 4 3 2 2 2
11 12 12 12 11 11 10 9 8 8 8 8 7 7 7 7 6 7 6 5 5 5 5 4 3 4 4 5 5 4 3 5 5 6 3 4 5 5 2 2 1 1 2
11 12 11 10 10 10 10 10 10 9 9 8 8 7 8 8 7 7 6 7 6 5 5 4 5 6 6 4 6 5 5 5 5 7 3 3 3 2 1 2 3 1 2
Wind_Direction
186 191 209 213 228 225 236 245 246 249 270 274 280 288 292 299 306 312 302 329 318 321 311 314 314 307 325 347 319 300 290 317 333 327 300 324 349 357 359 357 12 32 7
193 192 203 208 214 224 237 244 246 264 272 274 284 291 297 310 309 301 292 313 299 312 307 331 316 327 319 345 316 325 314 319 326 325 302 333 359 4 22 29 1 3 18
189 193 200 214 211 226 235 240 247 262 281 290 287 302 303 304 299 291 354 323 316 297 312 318 301 301 334 338 318 349 342 335 340 324 343 352 358 9 5 15 17 346 10
187 196 202 209 213 218 227 240 255 260 272 281 282 287 284 303 292 348 357 327 312 304 319 310 304 324 314 298 344 357 354 342 333 338 333 1 353 351 4 359 348 355 353
186 196 208 209 211 214 219 236 243 247 256 271 274 279 284 293 284 351 316 307 303 298 313 328 335 316 323 340 342 336 338 342 341 335 343 345 330 15 7 347 342 326 352
182 196 197 202 203 201 212 231 238 245 256 261 261 263 277 275 302 307 321 305 294 294 310 349 343 322 343 339 347 346 355 347 333 316 318 336 340 43 339 334 1 4 350
185 191 197 195 198 201 205 220 230 232 244 258 267 263 275 273 296 306 312 307 289 278 306 9 337 337 332 316 335 351 356 356 343 27 357 346 325 278 303 351 27 266 263
192 195 193 193 194 199 203 212 225 223 233 241 256 260 262 272 293 306 314 317 296 280 256 308 72 330 315 330 354 334 344 344 331 87 10 310 278 253 283 298 228 272 278
197 204 200 188 190 194 205 208 215 217 232 243 247 257 265 273 289 303 312 313 299 306 251 226 157 303 312 335 5 334 325 341 329 287 5 0 4 8 1 349 334 0 336
196 197 197 192 191 197 199 206 209 207 220 236 255 250 258 269 278 291 304 283 300 331 330 296 331 226 338 339 355 329 349 303 311 297 296 294 83 35 31 29 355 16 351
187 183 192 194 192 192 195 193 196 215 228 241 250 256 251 244 251 271 290 271 284 321 301 289 321 355 333 338 344 15 296 308 306 298 281 223 252 261 194 153 75 8 337
183 192 189 190 190 189 190 203 200 207 225 241 248 261 249 243 240 244 272 285 274 234 279 292 334 325 322 326 338 338 335 350 339 328 357 340 332 270 241 215 169 187 202
184 191 188 184 188 186 185 195 202 209 212 230 236 249 256 255 224 250 263 306 319 228 226 268 297 313 319 339 335 327 20 12 353 6 346 319 294 275 302 166 235 236 233
189 184 179 184 195 193 196 189 190 202 214 220 227 237 247 240 264 75 57 14 16 33 7 321 290 284 268 261 313 9 340 316 285 316 312 300 330 352 343 344 336 310 325
184 181 185 189 203 196 202 190 197 205 195 208 223 209 212 250 176 150 89 70 40 303 312 316 310 329 353 11 358 344 16 25 17 336 341 339 346 349 339 338 327 344 6
190 187 192 189 188 189 186 213 212 199 196 208 220 208 264 275 286 247 94 271 288 281 336 283 284 7 56 24 355 335 356 23 327 331 341 348 360 352 340 339 357 3 349
194 192 191 191 184 182 186 188 198 233 223 226 234 237 238 240 257 229 186 235 257 259 210 271 154 90 59 27 359 359 337 320 333 6 353 356 359 354 359 335 346 345 335
193 197 189 185 177 175 182 186 183 185 198 217 232 222 227 225 219 199 205 278 266 224 198 182 257 94 75 52 351 24 347 341 351 347 358 355 347 339 340 340 338 329 321
195 202 189 177 179 178 175 178 186 190 190 189 161 202 209 201 204 203 220 195 192 165 148 123 134 103 54 77 24 4 353 317 354 33 353 343 329 338 321 322 326 336 342
202 205 191 179 178 184 177 180 183 189 189 194 178 191 173 176 184 196 215 205 143 120 110 96 23 356 53 68 21 22 5 14 40 17 343 332 319 323 315 315 315 314 315
196 197 192 186 181 184 183 184 184 181 188 194 199 183 176 177 192 190 170 151 141 137 147 155 200 267 219 96 52 35 66 15 37 360 334 320 316 324 318 318 321 327 337
192 190 192 187 185 182 186 186 188 188 186 184 181 167 169 154 167 157 146 152 162 164 175 179 220 230 191 173 192 84 50 10 328 321 310 299 304 321 325 330 330 343 2
189 189 189 189 185 184 188 189 189 185 183 179 164 163 158 170 183 165 160 163 170 176 186 190 222 204 239 230 155 117 193 273 281 273 283 301 315 315 318 320 329 352 14
186 187 187 187 183 187 186 188 190 181 176 177 170 167 172 179 182 175 169 163 171 173 185 178 197 168 198 239 231 214 249 255 289 296 334 309 303 312 313 313 340 356 31
190 185 185 185 186 187 185 186 182 180 179 178 174 166 166 170 171 175 180 164 153 163 180 170 178 176 200 218 233 229 252 291 286 287 292 303 295 310 320 337 26 9 37
197 193 184 181 184 185 186 183 183 180 180 174 170 167 167 170 178 178 169 156 152 169 184 180 190 196 206 221 239 244 268 277 285 294 293 271 289 317 45 32 12 43 75